#�ϑ�����,���ϕ���,���ϕ���,�ő啗��,�ő啗����������,�ő�u�ԕ���,�ő�u�ԕ�����������
#(�N����),(m/s)   ,(16����),(m/s)   ,(16����)        ,(m/s)       ,(16����)            
2017/8/18 0:01,1,1,1,2,1.6,1
2017/8/18 0:02,1,1,1,2,1.5,1
2017/8/18 0:03,1.1,1,1.1,2,1.8,2
2017/8/18 0:04,1.1,1,1.1,2,1.5,1
2017/8/18 0:05,1,1,1.1,2,1.4,1
2017/8/18 0:06,1,1,1,1,1.5,1
2017/8/18 0:07,1,1,1,1,0.4,1
2017/8/18 0:08,0.8,1,0.9,1,0.3,2
2017/8/18 0:09,0.8,1,0.8,1,0.5,1
2017/8/18 0:10,0.7,1,0.8,1,0.6,16
2017/8/18 0:11,0.6,1,0.7,1,0.5,16
2017/8/18 0:12,0.5,1,0.6,1,1.1,1
2017/8/18 0:13,0.5,1,0.5,1,1.4,16
2017/8/18 0:14,0.5,1,0.5,1,1.5,16
2017/8/18 0:15,0.5,1,0.5,1,1.3,16
2017/8/18 0:16,0.5,1,0.5,1,1.3,16
2017/8/18 0:17,0.5,16,0.5,1,1.3,16
2017/8/18 0:18,0.6,16,0.6,1,1.1,15
2017/8/18 0:19,0.7,16,0.7,1,1.3,15
2017/8/18 0:20,0.7,16,0.7,1,1.1,15
2017/8/18 0:21,0.8,16,0.8,16,1.1,15
2017/8/18 0:22,0.8,16,0.8,16,1.1,1
2017/8/18 0:23,0.8,16,0.8,16,0.9,16
2017/8/18 0:24,0.7,16,0.8,16,0.9,16
2017/8/18 0:25,0.6,16,0.7,16,0.4,1
2017/8/18 0:26,0.6,16,0.6,16,0.1,4
2017/8/18 0:27,0.6,16,0.6,16,0.5,16
2017/8/18 0:28,0.5,16,0.6,16,0.8,1
2017/8/18 0:29,0.5,1,0.5,16,1.3,1
2017/8/18 0:30,0.6,1,0.6,16,1.5,2
2017/8/18 0:31,0.6,1,0.6,16,1.3,2
2017/8/18 0:32,0.6,1,0.6,16,1,2
2017/8/18 0:33,0.6,1,0.6,16,1.3,2
2017/8/18 0:34,0.6,1,0.6,16,1.1,1
2017/8/18 0:35,0.7,1,0.7,1,1.5,16
2017/8/18 0:36,0.9,1,0.9,1,2,16
2017/8/18 0:37,1,1,1,1,2,16
2017/8/18 0:38,1.1,1,1.1,1,1.9,16
2017/8/18 0:39,1.1,1,1.1,1,1.6,1
2017/8/18 0:40,1.2,1,1.2,1,1.9,1
2017/8/18 0:41,1.3,1,1.3,1,2.2,16
2017/8/18 0:42,1.3,16,1.3,1,2.2,16
2017/8/18 0:43,1.5,16,1.5,16,2.4,16
2017/8/18 0:44,1.6,16,1.6,16,2.1,16
2017/8/18 0:45,1.6,16,1.6,16,2.1,1
2017/8/18 0:46,1.6,16,1.7,16,2.2,1
2017/8/18 0:47,1.6,16,1.6,16,1.8,16
2017/8/18 0:48,1.6,16,1.6,16,1.8,16
2017/8/18 0:49,1.6,16,1.6,16,2,16
2017/8/18 0:50,1.6,16,1.6,16,1.9,1
2017/8/18 0:51,1.5,16,1.5,16,1.8,16
2017/8/18 0:52,1.5,16,1.5,16,1.5,15
2017/8/18 0:53,1.4,16,1.5,16,1.6,16
2017/8/18 0:54,1.3,16,1.4,16,1.4,15
2017/8/18 0:55,1.2,16,1.3,16,1.1,15
2017/8/18 0:56,1.1,16,1.2,16,0.8,1
2017/8/18 0:57,1.1,16,1.1,16,1.4,15
2017/8/18 0:58,1,16,1,16,1.4,15
2017/8/18 0:59,1,16,1,16,1.5,16
2017/8/18 1:00,1,16,1,16,1.4,16
2017/8/18 1:01,0.9,16,1,16,1.1,1
2017/8/18 1:02,1,16,1,16,2.2,16
2017/8/18 1:03,1.1,16,1.1,16,2.5,16
2017/8/18 1:04,1.1,16,1.1,16,2.1,16
2017/8/18 1:05,1.2,16,1.2,16,2.2,16
2017/8/18 1:06,1.3,16,1.3,16,2,1
2017/8/18 1:07,1.4,16,1.4,16,2.2,16
2017/8/18 1:08,1.5,16,1.5,16,2.4,16
2017/8/18 1:09,1.5,16,1.5,16,1.9,16
2017/8/18 1:10,1.5,16,1.5,16,1.9,16
2017/8/18 1:11,1.5,16,1.5,16,1,16
2017/8/18 1:12,1.4,16,1.5,16,1.4,1
2017/8/18 1:13,1.3,16,1.4,16,1.3,1
2017/8/18 1:14,1.2,16,1.3,16,0.8,1
2017/8/18 1:15,1.1,16,1.2,16,0.9,16
2017/8/18 1:16,1,1,1.1,16,1.3,16
2017/8/18 1:17,0.9,16,1,16,1,1
2017/8/18 1:18,0.8,16,0.9,16,1,16
2017/8/18 1:19,0.8,16,0.8,16,1.3,16
2017/8/18 1:20,0.7,16,0.7,16,0.8,15
2017/8/18 1:21,0.6,16,0.7,16,0.9,16
2017/8/18 1:22,0.6,16,0.6,16,0.8,16
2017/8/18 1:23,0.6,16,0.6,16,1,15
2017/8/18 1:24,0.6,16,0.6,16,0.8,15
2017/8/18 1:25,0.6,16,0.6,16,0.8,16
2017/8/18 1:26,0.5,15,0.6,1,0.5,15
2017/8/18 1:27,0.5,15,0.5,16,1,10
2017/8/18 1:28,0.5,15,0.5,16,1.3,11
2017/8/18 1:29,0.5,14,0.5,16,0.8,9
2017/8/18 1:30,0.5,14,0.5,16,0.8,9
2017/8/18 1:31,0.5,13,0.5,16,0.1,9
2017/8/18 1:32,0.4,12,0.5,16,0.3,7
2017/8/18 1:33,0.3,12,0.4,16,0,15
2017/8/18 1:34,0.3,11,0.3,16,0.5,5
2017/8/18 1:35,0.3,9,0.3,16,0.6,3
2017/8/18 1:36,0.4,8,0.4,15,1,16
2017/8/18 1:37,0.4,5,0.4,15,1.5,1
2017/8/18 1:38,0.4,3,0.4,15,1.3,2
2017/8/18 1:39,0.4,2,0.4,14,1.5,1
2017/8/18 1:40,0.5,2,0.5,14,1.5,2
2017/8/18 1:41,0.5,2,0.5,13,1.4,2
2017/8/18 1:42,0.6,2,0.6,2,1.9,1
2017/8/18 1:43,0.8,2,0.8,2,1.6,1
2017/8/18 1:44,0.9,2,0.9,2,1.9,1
2017/8/18 1:45,0.9,1,0.9,2,1.4,2
2017/8/18 1:46,1,1,1,1,1.4,2
2017/8/18 1:47,0.9,1,1,1,0.8,4
2017/8/18 1:48,0.8,1,0.9,1,0.9,2
2017/8/18 1:49,0.8,1,0.8,1,1.4,2
2017/8/18 1:50,0.8,2,0.8,1,0.6,6
2017/8/18 1:51,0.7,2,0.7,1,0.3,6
2017/8/18 1:52,0.7,2,0.7,1,3,9
2017/8/18 1:53,1,2,1,1,8.1,8
2017/8/18 1:54,1.4,3,1.4,3,11.4,10
2017/8/18 1:55,1.7,4,1.7,3,10.3,9
2017/8/18 1:56,2.1,6,2.1,6,5.5,7
2017/8/18 1:57,2.3,7,2.3,7,5.2,9
2017/8/18 1:58,2.5,8,2.5,8,4.4,8
2017/8/18 1:59,2.8,8,2.8,8,4.7,6
2017/8/18 2:00,3.1,8,3.1,8,4.8,8
2017/8/18 2:01,3.4,8,3.4,8,4.7,8
2017/8/18 2:02,3.5,8,3.5,8,3.9,7
2017/8/18 2:03,3.2,8,3.5,8,2.4,8
2017/8/18 2:04,2.7,8,3.2,8,1.8,7
2017/8/18 2:05,2.3,8,2.6,8,1.5,7
2017/8/18 2:06,2,8,2.3,8,1.5,8
2017/8/18 2:07,1.7,8,2,8,0.9,8
2017/8/18 2:08,1.6,8,1.7,8,2.6,10
2017/8/18 2:09,1.4,8,1.6,8,2.2,10
2017/8/18 2:10,1.3,9,1.4,8,2.6,13
2017/8/18 2:11,1.3,9,1.3,8,3,14
2017/8/18 11:00,1.6,8,1.6,8,2,8
2017/8/18 11:01,1.8,8,1.8,8,2,8
2017/8/18 11:02,1.6,7,1.9,8,2.2,8
2017/8/18 11:03,1.6,7,1.7,8,2.2,7
2017/8/18 11:04,1.5,8,1.6,8,2,9
2017/8/18 11:05,1.5,8,1.5,8,3.2,11
2017/8/18 11:06,1.6,9,1.7,8,4.1,11
2017/8/18 11:07,1.5,9,1.6,8,2.2,10
2017/8/18 11:08,1.5,9,1.5,8,2,11
2017/8/18 11:09,1.5,9,1.5,8,3,9
2017/8/18 11:10,1.5,9,1.5,8,4.2,8
2017/8/18 11:11,1.7,9,1.7,8,4.3,8
2017/8/18 11:12,1.7,10,1.7,7,3.5,10
2017/8/18 11:13,1.6,10,1.7,9,2.4,9
2017/8/18 11:14,1.6,10,1.6,9,3.7,9
2017/8/18 11:15,1.7,10,1.8,10,4.1,10
2017/8/18 11:16,1.8,10,1.8,10,3.9,10
2017/8/18 11:17,1.9,10,1.9,10,4.7,12
2017/8/18 11:18,1.9,10,1.9,10,3,9
2017/8/18 11:19,2,10,2,10,4.1,8
2017/8/18 11:20,1.9,10,2,10,4.1,9
2017/8/18 11:21,1.9,10,1.9,10,4.2,10
2017/8/18 11:22,1.8,10,1.9,10,2.7,9
2017/8/18 11:23,1.8,10,1.8,10,2.2,10
2017/8/18 11:24,1.7,10,1.8,10,1.1,8
2017/8/18 11:25,1.5,10,1.7,10,1.5,7
2017/8/18 11:26,1.5,10,1.5,10,4.3,10
2017/8/18 11:27,1.6,10,1.6,10,4.1,9
2017/8/18 11:28,1.7,10,1.7,10,3.9,10
2017/8/18 11:29,1.7,10,1.8,10,2.7,10
2017/8/18 11:30,1.7,10,1.8,10,3,10
2017/8/18 11:31,1.6,10,1.7,10,2.1,10
2017/8/18 11:32,1.6,10,1.6,10,1.6,9
2017/8/18 11:33,1.7,10,1.7,10,3.3,11
2017/8/18 11:34,1.8,10,1.8,10,3.6,10
2017/8/18 11:35,2,10,2,10,3.8,11
2017/8/18 11:36,1.9,10,2,10,3.5,10
2017/8/18 11:37,1.8,10,1.9,10,3.6,10
2017/8/18 11:38,1.7,10,1.8,10,3.6,10
2017/8/18 11:39,1.7,10,1.7,10,4.1,9
2017/8/18 11:40,1.9,10,1.9,10,5.5,11
2017/8/18 11:41,2.1,10,2.1,10,4.5,11
2017/8/18 11:42,2.1,11,2.1,10,3.3,10
2017/8/18 11:43,2.1,11,2.2,11,3.5,9
2017/8/18 11:44,2,10,2.1,11,3.5,10
2017/8/18 11:45,2.1,10,2.1,11,4.1,10
2017/8/18 11:46,2.2,10,2.2,11,3.5,11
2017/8/18 11:47,2.2,10,2.2,11,3.9,9
2017/8/18 11:48,2.2,10,2.3,10,3.6,10
2017/8/18 11:49,2.2,10,2.3,10,4.9,10
2017/8/18 11:50,2.1,10,2.3,10,2.7,12
2017/8/18 11:51,2.1,10,2.2,10,4.9,10
2017/8/18 11:52,2.3,10,2.3,10,4.8,11
2017/8/18 11:53,2.4,10,2.4,10,5.1,10
2017/8/18 11:54,2.6,10,2.6,10,4.7,10
2017/8/18 11:55,2.5,10,2.6,10,3.5,11
2017/8/18 11:56,2.5,10,2.5,10,3,7
2017/8/18 11:57,2.4,10,2.5,10,2.7,12
2017/8/18 11:58,2.4,10,2.4,10,4.5,9
2017/8/18 11:59,2.4,10,2.4,10,4.1,9
2017/8/18 12:00,2.4,10,2.4,10,4.1,10
2017/8/18 12:01,2.4,10,2.4,10,5,10
2017/8/18 12:02,2.3,10,2.4,10,4.2,11
2017/8/18 12:03,2.1,10,2.3,10,3.3,11
2017/8/18 12:04,2.1,10,2.1,10,4.2,9
2017/8/18 12:05,2.1,10,2.1,10,4.3,10
2017/8/18 12:06,2.1,10,2.1,10,3.1,10
2017/8/18 12:07,2.2,10,2.2,10,4.9,10
2017/8/18 12:08,2.2,10,2.2,10,5.1,10
2017/8/18 12:09,2.2,10,2.2,10,5.8,10
2017/8/18 12:10,2.3,10,2.3,10,4.4,12
2017/8/18 12:11,2.4,10,2.4,10,6.1,9
2017/8/18 12:12,2.2,10,2.4,10,2.1,10
2017/8/18 12:13,2.3,10,2.3,10,3.6,9
2017/8/18 12:14,2.3,10,2.3,10,3.9,8
2017/8/18 12:15,2.3,10,2.3,10,4.4,9
2017/8/18 12:16,2.4,10,2.4,10,5.5,9
2017/8/18 12:17,2.4,10,2.4,10,5.2,9
2017/8/18 12:18,2.4,10,2.5,10,5.5,9
2017/8/18 12:19,2.4,10,2.4,10,4.9,10
2017/8/18 12:20,2.2,9,2.3,10,3.8,9
2017/8/18 12:21,2.2,9,2.3,10,3.9,9
2017/8/18 12:22,2.4,9,2.4,10,4.3,10
2017/8/18 12:23,2.6,10,2.6,9,5,10
2017/8/18 12:24,2.6,10,2.6,9,4.2,11
2017/8/18 12:25,2.6,10,2.6,9,4.8,10
2017/8/18 12:26,2.5,10,2.6,9,4.2,8
2017/8/18 12:27,2.4,10,2.6,9,3.5,9
2017/8/18 12:28,2.3,10,2.4,9,3.6,9
2017/8/18 12:29,2.2,10,2.3,9,2.6,10
2017/8/18 12:30,2.1,10,2.2,9,3.1,7
2017/8/18 12:31,1.9,10,2.1,9,1.6,13
2017/8/18 12:32,1.8,10,1.9,9,3.5,12
2017/8/18 12:33,1.6,11,1.8,10,2.9,10
2017/8/18 12:34,1.5,11,1.6,10,5,8
2017/8/18 12:35,1.5,11,1.5,10,5.7,9
2017/8/18 12:36,1.6,10,1.6,10,4.7,9
2017/8/18 12:37,1.7,10,1.7,10,5,8
2017/8/18 12:38,2,10,2,10,7.1,7
2017/8/18 12:39,2.1,10,2.1,10,4.5,10
2017/8/18 12:40,2.3,10,2.3,10,4.2,8
2017/8/18 12:41,2.5,9,2.5,9,6,8
2017/8/18 12:42,2.6,9,2.6,9,5.2,8
2017/8/18 12:43,2.7,9,2.7,9,5.2,7
2017/8/18 12:44,2.8,9,2.8,9,6.4,9
2017/8/18 12:45,2.9,9,2.9,9,5.6,10
2017/8/18 12:46,2.9,9,2.9,9,5.5,10
2017/8/18 12:47,3,9,3,9,6.1,10
2017/8/18 12:48,2.9,9,3,9,5.5,10
2017/8/18 12:49,2.9,10,3,9,4.2,10
2017/8/18 12:50,3,10,3,9,5.4,10
2017/8/18 12:51,2.9,10,3,9,5.1,10
2017/8/18 12:52,2.8,10,2.9,9,3.2,10
2017/8/18 12:53,2.6,10,2.8,9,2.5,10
2017/8/18 12:54,2.5,10,2.6,9,3.9,9
2017/8/18 12:55,2.4,10,2.5,9,3.8,10
2017/8/18 12:56,2.3,10,2.5,9,3.8,10
2017/8/18 12:57,2.1,10,2.3,9,3.8,9
2017/8/18 12:58,1.9,10,2.1,9,2.9,11
2017/8/18 12:59,2,10,2,10,4.7,9
2017/8/18 13:00,1.8,10,1.9,10,3.2,11
2017/8/18 13:01,1.7,10,1.8,10,4.1,9
2017/8/18 13:02,1.9,9,1.9,10,4.9,8
2017/8/18 13:03,2.1,9,2.1,10,4.9,8
2017/8/18 13:04,2.2,9,2.2,10,3.5,9
2017/8/18 13:05,2.2,9,2.3,10,5,8
2017/8/18 13:06,2.2,9,2.2,10,4.2,9
2017/8/18 13:07,2.4,9,2.4,9,6.4,9
2017/8/18 13:08,2.6,9,2.6,9,5.8,10
2017/8/18 13:09,2.6,9,2.6,9,5.1,11
2017/8/18 13:10,2.7,9,2.7,9,5.1,10
2017/8/18 13:11,2.8,9,2.8,9,3.9,10
2017/8/18 13:12,2.8,10,2.8,9,3.6,12
2017/8/18 13:13,2.7,10,2.7,9,3.8,11
2017/8/18 13:14,2.8,10,2.8,9,6.2,11
2017/8/18 13:15,2.8,10,2.9,10,4.3,11
2017/8/18 13:16,2.9,10,2.9,10,3.9,10
2017/8/18 13:17,2.8,11,2.9,10,3.9,10
2017/8/18 13:18,2.7,11,2.7,10,5,10
2017/8/18 13:19,2.7,11,2.8,10,6.3,9
2017/8/18 13:20,2.7,11,2.7,10,4.7,11
2017/8/18 13:21,2.8,11,2.8,10,5,10
2017/8/18 13:22,2.9,11,2.9,10,5,11
2017/8/18 13:23,3.1,11,3.1,11,5.4,10
2017/8/18 13:24,2.9,11,3.1,11,3.9,11
2017/8/18 13:25,2.8,11,2.9,11,4.1,11
2017/8/18 13:26,2.8,11,2.8,11,6.4,9
2017/8/18 13:27,2.9,11,2.9,11,5,10
2017/8/18 13:28,2.9,11,3,11,4.4,10
2017/8/18 13:29,2.9,11,2.9,11,3.8,9
2017/8/18 13:30,2.7,11,2.9,11,2.4,10
2017/8/18 13:31,2.5,11,2.7,11,2.5,11
2017/8/18 13:32,2.4,11,2.5,11,3.6,10
2017/8/18 13:33,2.1,11,2.3,11,3.2,10
2017/8/18 13:34,1.9,11,2,11,1.9,10
2017/8/18 13:35,1.9,11,1.9,11,2.4,13
2017/8/18 13:36,1.8,11,1.9,11,3.1,15
2017/8/18 13:37,1.8,11,1.8,11,3.6,13
2017/8/18 13:38,1.8,12,1.8,11,4.1,14
2017/8/18 13:39,1.9,12,1.9,11,4.7,12
2017/8/18 13:40,1.9,13,1.9,11,3.9,13
2017/8/18 13:41,2.1,13,2.1,11,7.5,12
2017/8/18 13:42,2.3,13,2.3,11,5.1,14
2017/8/18 13:43,2.4,13,2.4,13,4.8,16
2017/8/18 13:44,2.7,14,2.7,14,8.3,15
2017/8/18 13:45,3.1,14,3.1,14,8.5,14
2017/8/18 13:46,3.5,14,3.5,14,8.7,16
2017/8/18 13:47,3.8,14,3.8,14,6.8,15
2017/8/18 13:48,3.9,14,3.9,14,7.6,15
2017/8/18 13:49,4.2,15,4.2,15,7.9,14
2017/8/18 13:50,4.5,15,4.5,15,10.1,15
2017/8/18 13:51,4.8,15,4.8,15,7.9,16
2017/8/18 13:52,4.8,16,4.8,15,6.1,15
2017/8/18 13:53,5,16,5,16,7,15
2017/8/18 13:54,4.9,16,5.1,16,6.4,14
2017/8/18 13:55,4.6,16,4.9,16,4.9,16
2017/8/18 13:56,4.5,16,4.6,16,7,16
2017/8/18 13:57,4.5,16,4.5,16,6.7,1
2017/8/18 13:58,4.4,16,4.5,16,6.2,16
2017/8/18 13:59,4.2,16,4.4,16,4.7,16
2017/8/18 14:00,3.9,16,4.1,16,6.2,14
2017/8/18 14:01,3.7,16,3.9,16,4.9,16
2017/8/18 14:02,3.6,16,3.7,16,7.4,15
2017/8/18 14:03,3.7,16,3.7,16,6.9,16
2017/8/18 14:04,3.8,16,3.8,16,8.2,15
2017/8/18 14:05,3.9,15,3.9,16,6.8,14
2017/8/18 14:06,3.9,15,4,16,8.3,16
2017/8/18 14:07,4,15,4,16,8.5,15
2017/8/18 14:08,4.1,15,4.1,16,7.8,15
2017/8/18 14:09,4.3,15,4.3,15,7.8,14
2017/8/18 14:10,4.3,15,4.4,15,6.9,16
2017/8/18 14:11,4.6,15,4.6,15,7.7,15
2017/8/18 14:12,4.6,15,4.6,15,7.1,15
2017/8/18 14:13,4.4,15,4.5,15,6.5,15
2017/8/18 14:14,4.5,15,4.5,15,8.1,1
2017/8/18 14:15,4.5,16,4.5,15,6.9,16
2017/8/18 14:16,4.3,16,4.5,15,6.3,16
2017/8/18 14:17,4.1,16,4.3,15,6.2,16
2017/8/18 14:18,4,16,4,15,6.1,14
2017/8/18 14:19,3.7,16,4,15,6,16
2017/8/18 14:20,3.8,16,3.8,15,5.4,15
2017/8/18 14:21,3.5,16,3.8,15,4.9,15
2017/8/18 14:22,3.4,16,3.4,15,5.7,15
2017/8/18 14:23,3.3,16,3.5,15,6,16
2017/8/18 14:24,3.3,16,3.3,15,6.4,15
2017/8/18 14:25,3.3,16,3.3,16,6,16
2017/8/18 14:26,3.4,16,3.4,16,7.6,15
2017/8/18 14:27,3.6,16,3.6,16,7.1,16
2017/8/18 14:28,3.6,16,3.7,16,5.2,16
2017/8/18 14:29,3.8,16,3.8,16,6.8,16
2017/8/18 14:30,3.8,16,3.8,16,6.8,15
2017/8/18 14:31,3.8,16,3.8,16,4.2,16
2017/8/18 14:32,4,16,4,16,6.4,16
2017/8/18 14:33,4.2,16,4.2,16,8.3,16
2017/8/18 14:34,4.1,16,4.2,16,5.6,15
2017/8/18 14:35,4,16,4.1,16,4.2,16
2017/8/18 14:36,3.9,16,4,16,5.8,16
2017/8/18 14:37,3.8,16,3.9,16,6.2,16
2017/8/18 14:38,3.7,15,3.8,16,4.1,15
2017/8/18 14:39,3.4,15,3.7,16,2.1,16
2017/8/18 14:40,3.2,15,3.3,16,4.2,15
2017/8/18 14:41,3.4,15,3.4,16,7.5,16
2017/8/18 14:42,3.2,15,3.4,16,6.2,16
2017/8/18 14:43,3,15,3.2,16,3.5,16
2017/8/18 14:44,2.9,16,2.9,16,4.7,16
2017/8/18 14:45,2.8,16,2.9,15,4.1,15
2017/8/18 14:46,2.8,16,2.9,16,6.9,16
2017/8/18 14:47,2.8,16,2.9,16,4.5,15
2017/8/18 14:48,3,16,3,15,6,16
2017/8/18 14:49,3.3,16,3.3,15,4.8,15
2017/8/18 14:50,3.3,16,3.3,15,4.4,1
2017/8/18 14:51,3.1,16,3.3,15,6.9,16
2017/8/18 14:52,3.2,16,3.2,16,6.3,15
2017/8/18 14:53,3.4,16,3.4,16,6.2,16
2017/8/18 14:54,3.5,16,3.5,16,7.6,15
2017/8/18 14:55,3.8,16,3.8,16,7.8,16
2017/8/18 14:56,3.8,16,3.8,16,7.1,16
2017/8/18 14:57,3.9,16,3.9,16,6.9,15
2017/8/18 14:58,3.8,16,3.9,16,6.4,16
2017/8/18 14:59,3.9,16,3.9,16,6.4,16
2017/8/18 15:00,3.9,16,3.9,16,7.1,16
2017/8/18 15:01,4,16,4.1,16,4.9,16
2017/8/18 15:02,3.9,16,4,16,4.5,15
2017/8/18 15:03,3.8,16,3.9,16,4.3,15
2017/8/18 15:04,3.8,16,3.8,16,5.7,15
2017/8/18 15:05,3.6,16,3.7,16,4.2,16
2017/8/18 15:06,3.5,16,3.5,16,4.9,16
2017/8/18 15:07,3.1,16,3.4,16,3.1,15
2017/8/18 15:08,2.8,16,3.1,16,2.7,1
2017/8/18 15:09,2.6,16,2.8,16,3.6,16
2017/8/18 15:10,2.4,16,2.6,16,2.9,1
2017/8/18 15:11,2.3,16,2.3,16,4.3,16
2017/8/18 15:12,2.5,16,2.5,16,7.7,16
2017/8/18 15:13,2.7,16,2.7,16,6.8,16
2017/8/18 15:14,2.6,16,2.6,16,6.1,16
2017/8/18 15:15,2.7,16,2.7,16,6.5,16
2017/8/18 15:16,2.7,1,2.7,16,4.7,2
2017/8/18 15:17,2.9,1,2.9,16,6.8,1
2017/8/18 15:18,3.2,16,3.2,16,6.3,2
2017/8/18 15:19,3.5,16,3.5,16,6.7,2
2017/8/18 15:20,3.8,16,3.8,16,6.7,16
2017/8/18 15:21,3.9,16,3.9,16,6.9,15
2017/8/18 15:22,3.8,16,3.9,16,6.4,1
2017/8/18 15:23,3.8,16,3.9,16,6.9,2
2017/8/18 15:24,3.8,16,3.8,16,6.3,1
2017/8/18 15:25,3.9,16,3.9,16,7.2,15
2017/8/18 15:26,4.2,16,4.2,16,10.1,16
2017/8/18 15:27,4.4,16,4.4,16,8.1,16
2017/8/18 15:28,4.3,16,4.4,16,6.2,15
2017/8/18 15:29,4.3,16,4.4,16,7.7,15
2017/8/18 15:30,4.4,16,4.4,16,7.6,16
2017/8/18 15:31,4.4,16,4.4,16,7,1
2017/8/18 15:32,4.3,16,4.4,16,5.8,16
2017/8/18 15:33,4.2,16,4.3,16,6.8,16
2017/8/18 15:34,4.2,16,4.3,16,5.6,16
2017/8/18 15:35,3.9,16,4.2,16,4.9,16
2017/8/18 15:36,3.6,16,3.9,16,4.7,16
2017/8/18 15:37,3.4,16,3.6,16,4.3,15
2017/8/18 15:38,3.4,16,3.4,16,8.4,16
2017/8/18 15:39,3.4,16,3.4,16,7.5,15
2017/8/18 15:40,3.4,16,3.5,16,5.6,16
2017/8/18 15:41,3.3,16,3.4,16,6.1,16
2017/8/18 15:42,3.3,16,3.3,16,8.4,15
2017/8/18 15:43,3.3,16,3.5,16,6.3,16
2017/8/18 15:44,3.4,16,3.4,16,4.5,16
2017/8/18 15:45,3.5,16,3.5,16,5.5,15
2017/8/18 15:46,3.3,16,3.5,16,2.9,1
2017/8/18 15:47,3.3,16,3.3,16,3.2,15
2017/8/18 15:48,3.1,15,3.3,16,2.5,15
2017/8/18 15:49,2.8,16,3,16,4.5,15
2017/8/18 15:50,2.7,15,2.8,16,4.5,16
2017/8/18 15:51,2.5,15,2.7,16,3.3,15
2017/8/18 15:52,2.3,15,2.5,16,4.4,14
2017/8/18 15:53,2.2,15,2.3,16,4.9,1
2017/8/18 15:54,2,15,2.2,16,2.6,16
2017/8/18 15:55,2,15,2,16,4.3,14
2017/8/18 15:56,2.1,15,2.1,16,3.9,15
2017/8/18 15:57,2.1,15,2.2,16,4.8,14
2017/8/18 15:58,2.3,15,2.3,16,4.7,16
2017/8/18 15:59,2.4,15,2.4,16,5.4,14
2017/8/18 16:00,2.2,15,2.4,15,2.2,10
2017/8/18 16:01,2.3,15,2.3,15,4.3,10
2017/8/18 16:02,2.2,15,2.2,15,3.5,8
2017/8/18 16:03,2.2,14,2.2,15,3.5,8
2017/8/18 16:04,2.2,14,2.2,15,4.1,15
2017/8/18 16:06,2,13,2,15,6,16
2017/8/18 16:07,2.1,13,2.1,15,6,16
2017/8/18 16:08,2.2,14,2.2,15,5,1
2017/8/18 16:09,2.1,15,2.2,15,4.2,16
2017/8/18 16:10,2.7,15,2.7,15,7,15
2017/8/18 16:11,2.9,15,3,15,4.9,13
2017/8/18 16:12,2.9,15,2.9,15,4.7,16
2017/8/18 16:13,2.9,15,2.9,15,4.8,15
2017/8/18 16:14,3.2,15,3.2,15,6.3,15
2017/8/18 16:15,3.1,15,3.2,15,5.6,15
2017/8/18 16:16,3,15,3.1,15,3.3,1
2017/8/18 16:17,2.9,15,3,15,3.8,14
2017/8/18 16:18,2.9,15,3,15,4.4,12
2017/8/18 16:19,2.9,14,2.9,15,3.8,12
2017/8/18 16:20,2.7,14,2.9,15,3.6,12
2017/8/18 16:21,2.5,14,2.6,15,4.1,10
2017/8/18 16:22,2.3,14,2.5,15,1.9,11
2017/8/18 16:23,2.2,13,2.3,15,1.5,11
2017/8/18 16:24,1.9,13,2.2,15,1.6,16
2017/8/18 16:25,1.7,13,1.9,15,2.6,4
2017/8/18 16:26,1.6,14,1.7,15,1.8,1
2017/8/18 16:27,1.5,13,1.6,15,1.9,11
2017/8/18 16:28,1.3,13,1.4,15,1.6,8
2017/8/18 16:29,1.1,12,1.3,14,1.8,9
2017/8/18 16:30,1,11,1.1,14,1.8,9
2017/8/18 16:31,1,11,1,14,1.8,8
2017/8/18 16:32,0.9,11,1,14,0.8,9
2017/8/18 16:33,0.8,10,0.9,13,1,15
2017/8/18 16:34,0.9,11,0.9,13,2.5,15
2017/8/18 16:35,1,11,1,14,4.1,15
2017/8/18 16:36,1.3,11,1.3,14,4.8,14
2017/8/18 16:37,1.5,12,1.5,12,5.6,15
2017/8/18 16:38,1.8,13,1.8,13,5.6,15
2017/8/18 16:39,1.9,14,1.9,14,4.2,14
2017/8/18 16:40,2.1,15,2.1,15,4.4,16
2017/8/18 16:41,2.2,15,2.2,15,4.4,16
2017/8/18 16:42,2.4,15,2.4,15,3.1,15
2017/8/18 16:43,2.6,15,2.6,15,3.9,16
2017/8/18 16:44,2.7,15,2.7,15,3.7,15
2017/8/18 16:45,2.7,16,2.7,15,3.5,1
2017/8/18 16:46,2.5,16,2.7,15,2.4,2
2017/8/18 16:47,2.4,16,2.5,15,3.6,6
2017/8/18 16:48,2.2,16,2.4,15,3.2,6
2017/8/18 16:49,2,1,2.2,15,2.6,16
2017/8/18 16:50,1.9,1,2,15,2.9,2
2017/8/18 16:51,1.9,2,1.9,15,2.9,3
2017/8/18 16:52,1.9,2,1.9,15,3.7,4
2017/8/18 16:53,2,2,2,15,3.5,1
2017/8/18 16:54,1.9,3,1.9,15,3.7,2
2017/8/18 16:55,1.8,3,1.9,16,2.7,2
2017/8/18 16:56,1.8,3,1.8,16,3,3
2017/8/18 16:57,1.8,2,1.8,16,3.1,3
2017/8/18 16:58,1.8,2,1.8,16,2,1
2017/8/18 16:59,1.7,2,1.8,1,2.2,2
2017/8/18 17:00,1.7,2,1.7,2,4.4,1
2017/8/18 17:01,1.8,2,1.8,2,4.5,1
2017/8/18 17:02,1.8,2,1.8,2,4.4,1
2017/8/18 17:03,1.7,2,1.8,2,2.6,2
2017/8/18 17:04,1.6,2,1.7,3,3.2,1
2017/8/18 17:05,1.6,2,1.7,3,3.6,1
2017/8/18 17:06,1.6,2,1.7,3,2,1
2017/8/18 17:07,1.5,2,1.6,2,1.3,1
2017/8/18 17:08,1.5,2,1.5,2,1.8,1
2017/8/18 17:09,1.5,2,1.5,2,1.8,1
2017/8/18 17:10,1.4,1,1.5,2,1.9,15
2017/8/18 17:11,1.2,1,1.4,2,0.9,3
2017/8/18 17:12,1,1,1.2,2,0.8,15
2017/8/18 17:13,1.1,16,1.1,2,4.2,15
2017/8/18 17:14,1.4,16,1.4,2,6.4,15
2017/8/18 17:15,1.4,16,1.4,2,5.2,16
2017/8/18 17:16,1.5,16,1.5,2,3.6,1
2017/8/18 17:17,2,16,2,16,8.2,16
2017/8/18 17:18,2.1,16,2.1,16,5.7,14
2017/8/18 17:19,2.2,16,2.2,16,5.4,15
2017/8/18 17:20,2.5,16,2.5,16,5.8,14
2017/8/18 17:21,3,16,3,16,7.8,15
2017/8/18 17:22,3.3,16,3.3,16,6.8,15
2017/8/18 17:23,3.7,16,3.7,16,7.9,15
2017/8/18 17:24,3.7,16,3.7,16,8.1,15
2017/8/18 17:25,3.8,16,3.8,16,5.5,1
2017/8/18 17:26,4,16,4,16,5.2,14
2017/8/18 17:27,3.8,16,4,16,5.1,16
2017/8/18 17:28,4,16,4,16,7.2,16
2017/8/18 17:29,4.1,16,4.2,16,5.1,16
2017/8/18 17:30,4,16,4.1,16,4.3,16
2017/8/18 17:31,3.8,16,4,16,7.6,16
2017/8/18 17:32,3.9,16,3.9,16,6.3,15
2017/8/18 17:33,3.9,16,4,16,6.3,15
2017/8/18 17:34,3.8,16,3.8,16,6.5,15
2017/8/18 17:35,3.9,16,3.9,16,9.5,16
2017/8/18 17:36,4,16,4,16,7.7,15
2017/8/18 17:37,4.2,16,4.2,16,6.9,16
2017/8/18 17:38,4.1,16,4.2,16,5.8,16
2017/8/18 17:39,4.1,16,4.1,16,5.5,15
2017/8/18 17:40,4.1,16,4.1,16,4.2,15
2017/8/18 17:41,4.1,16,4.2,16,4.9,16
2017/8/18 17:42,4,16,4.1,16,4.7,15
2017/8/18 17:43,3.8,16,4,16,5.8,16
2017/8/18 17:44,3.7,16,3.8,16,6.8,15
2017/8/18 17:45,3.5,16,3.7,16,3.1,16
2017/8/18 17:46,3.2,16,3.4,16,3.2,16
2017/8/18 17:47,3,16,3.2,16,7.2,16
2017/8/18 17:48,3.1,16,3.1,16,5.2,16
2017/8/18 17:49,3.1,16,3.1,16,6.3,1
2017/8/18 17:50,3.1,16,3.2,16,4.3,16
2017/8/18 17:51,2.9,16,3.1,16,2.7,1
2017/8/18 17:52,2.8,16,3,16,4.2,1
2017/8/18 17:53,3,16,3,16,6.5,15
2017/8/18 17:54,3,16,3,16,6,15
2017/8/18 17:55,3.1,16,3.1,16,5.7,1
2017/8/18 17:56,3.2,16,3.2,16,7,16
2017/8/18 17:57,3.1,16,3.3,16,6,16
2017/8/18 17:58,3.1,16,3.1,16,5.8,15
2017/8/18 17:59,2.9,16,3.1,16,4.1,15
2017/8/18 18:00,2.9,16,2.9,16,4.4,16
2017/8/18 18:01,2.9,16,2.9,16,3.6,15
2017/8/18 18:02,2.9,16,2.9,16,3.9,16
2017/8/18 18:03,2.8,16,2.9,16,4.1,15
2017/8/18 18:04,2.7,16,2.8,16,3.5,16
2017/8/18 18:05,2.6,15,2.7,16,8.2,15
2017/8/18 18:06,2.9,15,2.9,16,7.2,15
2017/8/18 18:07,2.8,15,2.9,16,4.2,1
2017/8/18 18:08,2.8,16,2.9,16,6.8,16
2017/8/18 18:09,2.8,16,2.8,16,5.6,15
2017/8/18 18:10,3,16,3,16,7.9,15
2017/8/18 18:11,3.3,16,3.3,16,7.6,15
2017/8/18 18:12,3.4,16,3.4,16,5,16
2017/8/18 18:13,3.4,16,3.5,16,5.4,16
2017/8/18 18:14,3.4,16,3.5,16,3.9,2
2017/8/18 18:15,3.3,16,3.5,16,2.7,15
2017/8/18 18:16,3.1,16,3.3,16,3.9,16
2017/8/18 18:17,3.2,16,3.2,16,6.4,16
2017/8/18 18:18,3.3,16,3.3,16,7.8,16
2017/8/18 18:19,3.4,16,3.4,16,5.2,16
2017/8/18 18:20,3,16,3.4,16,4.3,16
2017/8/18 18:21,3,16,3.1,16,5,16
2017/8/18 18:22,2.9,16,3,16,5,16
2017/8/18 18:23,2.9,16,2.9,16,5.2,16
2017/8/18 18:24,3,16,3,16,4.5,16
2017/8/18 18:25,3.1,16,3.1,16,3.5,1
2017/8/18 18:26,2.9,16,3,16,2.2,1
2017/8/18 18:27,2.7,16,2.9,16,1.9,16
2017/8/18 18:28,2.4,16,2.7,16,2.7,16
2017/8/18 18:29,2.2,1,2.4,16,1.9,1
2017/8/18 18:30,2.1,1,2.2,16,3.2,16
2017/8/18 18:31,2.2,1,2.2,16,6.7,15
2017/8/18 18:32,2.1,1,2.2,16,2.2,4
2017/8/18 18:33,1.7,1,2.1,16,2.1,3
2017/8/18 18:34,1.5,1,1.7,16,1.9,16
2017/8/18 18:35,1.4,1,1.5,16,2,1
2017/8/18 18:36,1.3,1,1.3,16,1.6,1
2017/8/18 18:37,1.3,1,1.4,16,3,3
2017/8/18 18:38,1.3,1,1.3,16,1.4,2
2017/8/18 18:39,1.3,1,1.3,1,2.1,4
2017/8/18 18:40,1.2,1,1.3,1,1.8,4
2017/8/18 18:41,1,2,1.2,1,1.9,1
2017/8/18 18:42,0.9,1,1,1,1.5,1
2017/8/18 18:43,0.9,2,0.9,1,0.8,2
2017/8/18 18:44,0.8,1,0.9,1,0.5,13
2017/8/18 18:45,0.8,1,0.8,1,1,14
2017/8/18 18:46,0.8,1,0.8,1,1,14
2017/8/18 18:47,0.7,16,0.8,1,1.4,13
2017/8/18 18:48,0.8,15,0.8,1,1.8,13
2017/8/18 18:49,0.8,15,0.9,1,1.8,12
2017/8/18 18:50,0.8,14,0.8,2,1,10
2017/8/18 18:51,0.7,13,0.8,2,1.5,10
2017/8/18 18:52,0.7,13,0.7,1,0.8,8
2017/8/18 18:53,0.6,12,0.7,2,0.3,10
2017/8/18 18:54,0.7,12,0.7,15,1.4,6
2017/8/18 18:55,0.7,11,0.7,15,1.6,7
2017/8/18 18:56,0.8,10,0.8,15,2.6,8
2017/8/18 18:57,0.8,9,0.9,15,1.8,8
2017/8/18 18:58,0.7,9,0.8,15,1,15
2017/8/18 18:59,0.7,9,0.7,9,1.9,16
2017/8/18 19:00,0.7,9,0.7,9,1,11
2017/8/18 19:01,0.7,9,0.7,9,1.8,15
2017/8/18 19:02,0.8,10,0.8,9,2.5,15
2017/8/18 19:03,0.9,10,0.9,9,2,16
2017/8/18 19:04,1,12,1,10,2.1,1
2017/8/18 19:05,1.1,13,1.1,13,2,15
2017/8/18 19:06,1.1,14,1.1,13,2.2,15
2017/8/18 19:07,1.1,15,1.1,13,2.5,15
2017/8/18 19:08,1.3,15,1.3,15,3,15
2017/8/18 19:09,1.4,15,1.4,15,2.9,15
2017/8/18 19:10,1.5,15,1.5,15,2.6,15
2017/8/18 19:11,1.6,15,1.6,15,2.1,14
2017/8/18 19:12,1.6,15,1.6,15,2.5,15
2017/8/18 19:13,1.6,15,1.6,15,2,16
2017/8/18 19:14,1.5,15,1.6,15,1.6,16
2017/8/18 19:15,1.6,15,1.6,15,4.2,16
2017/8/18 19:16,1.7,15,1.7,15,3.2,1
2017/8/18 19:17,1.8,15,1.8,15,3.5,15
2017/8/18 19:18,1.8,15,1.8,15,3,16
2017/8/18 19:19,1.8,16,1.8,15,3.1,2
2017/8/18 19:20,1.8,16,1.8,15,3,16
2017/8/18 19:21,1.8,16,1.8,15,3,2
2017/8/18 19:22,1.9,16,1.9,16,2.4,2
2017/8/18 19:23,2,1,2,16,3.8,1
2017/8/18 19:24,2.1,1,2.1,1,2.4,1
2017/8/18 19:25,2,1,2.1,1,2.1,2
2017/8/18 19:26,2,1,2,1,3.6,2
2017/8/18 19:27,1.9,1,2,1,2.4,2
2017/8/18 19:28,1.9,1,1.9,1,3,2
2017/8/18 19:29,1.8,1,1.9,1,3.5,3
2017/8/18 19:30,1.8,2,1.8,1,2.2,3
2017/8/18 19:31,1.7,2,1.8,1,1.8,2
2017/8/18 19:32,1.7,2,1.7,1,2.5,3
2017/8/18 19:33,1.6,2,1.7,1,2.9,4
2017/8/18 19:34,1.7,3,1.7,1,2.7,4
2017/8/18 19:35,1.6,3,1.7,1,2,2
2017/8/18 19:36,1.6,3,1.6,1,2.1,3
2017/8/18 19:37,1.6,3,1.6,1,2.9,4
2017/8/18 19:38,1.6,3,1.6,1,2.2,7
2017/8/18 19:39,1.5,4,1.5,1,2.5,6
2017/8/18 19:40,1.5,4,1.5,2,1.8,6
2017/8/18 19:41,1.6,4,1.6,2,3.2,5
2017/8/18 19:42,1.7,5,1.7,2,4.1,5
2017/8/18 19:43,1.8,5,1.8,5,4.7,4
2017/8/18 19:44,1.8,5,1.8,5,3,5
2017/8/18 19:45,2,5,2,5,3.3,3